1484384400.1,26652,6.56,71126.0,-14.79,-15.35,-15.21,0,*6B
1484384401.33,26653,6.56,71122.3,-14.75,-15.15,-15.15,0,*63
1484384402.57,26654,6.56,71140.5,-14.75,-15.29,-15.15,0,*6B
1484384403.85,26655,6.56,71140.8,-14.79,-15.35,-15.21,0,*6C
1484384405.1,26656,6.56,71140.0,-14.75,-15.21,-15.15,0,*61
1484384406.34,26657,6.56,71132.0,-14.75,-15.15,-15.15,0,*67
1484384407.59,26658,6.56,71138.5,-14.75,-15.21,-15.07,0,*6C
1484384408.87,26659,6.56,71138.0,-14.75,-15.21,-15.21,0,*69
1484384410.13,26660,6.56,71136.8,-14.75,-15.29,-15.21,0,*6B
1484384411.38,26661,6.56,71132.8,-14.75,-15.21,-15.15,0,*65
1484384412.62,26662,6.56,71132.0,-14.75,-15.15,-15.07,0,*62
1484384413.88,26663,6.56,71134.5,-14.75,-15.15,-15.01,0,*65
1484384415.11,26664,6.56,71128.0,-14.73,-15.15,-15.01,0,*64
1484384416.32,26665,6.56,71122.8,-14.73,-15.07,-15.07,0,*60
1484384417.58,26666,6.56,71122.0,-14.73,-15.21,-15.21,0,*63
1484384418.81,26667,6.56,71130.3,-14.73,-15.21,-15.15,0,*65
1484384420.07,26668,6.56,71130.3,-14.75,-15.21,-15.15,0,*6C
1484384421.33,26669,6.56,71126.0,-14.73,-15.35,-15.21,0,*69
1484384422.59,26670,6.56,71130.0,-14.73,-15.35,-15.21,0,*61
1484384423.85,26671,6.56,71130.5,-14.75,-15.29,-15.21,0,*6B
1484384425.07,26672,6.56,71130.8,-14.73,-15.29,-15.29,0,*66
1484384426.34,26673,6.56,71132.8,-14.73,-15.35,-15.35,0,*67
1484384427.58,26674,6.56,71132.3,-14.75,-15.29,-15.15,0,*69
1484384428.83,26675,6.56,71132.0,-14.75,-15.21,-15.15,0,*60
1484384430.08,26676,6.56,71142.3,-14.75,-15.07,-15.01,0,*62
1484384431.3,26677,6.56,71140.0,-14.73,-15.15,-15.07,0,*60
1484384432.53,26678,6.56,71142.3,-14.73,-15.21,-15.15,0,*6B
1484384433.75,26679,6.56,71140.3,-14.73,-15.15,-15.15,0,*6D
1484384434.96,26680,6.56,71146.3,-14.73,-15.15,-15.07,0,*68
1484384436.17,26681,6.56,71150.3,-14.73,-15.15,-15.07,0,*69
1484384437.41,26682,6.56,71144.3,-14.73,-15.21,-15.07,0,*6D
1484384438.62,26683,6.56,71144.8,-14.73,-15.15,-15.07,0,*6B
1484384439.85,26684,6.56,71146.5,-14.73,-15.21,-15.15,0,*68
1484384441.07,26685,6.56,71144.5,-14.73,-15.49,-15.29,0,*68
1484384442.32,26686,6.56,71144.0,-14.71,-15.29,-15.25,0,*63
1484384443.56,26687,6.56,71142.3,-14.71,-15.25,-15.25,0,*6E
1484384444.82,26688,6.56,71140.8,-14.71,-15.11,-15.01,0,*60
1484384446.03,26689,6.56,71142.8,-14.69,-15.15,-15.11,0,*6D
1484384447.27,26690,6.56,71136.5,-14.71,-15.25,-15.15,0,*6B
1484384448.48,26691,6.56,71142.5,-14.69,-15.29,-15.11,0,*6B
1484384449.72,26692,6.56,71138.0,-14.71,-15.25,-15.15,0,*69
1484384450.93,26693,6.56,71144.0,-14.69,-15.29,-15.15,0,*6D
1484384452.18,26694,6.56,71142.0,-14.69,-15.39,-15.25,0,*68
1484384453.44,26695,6.56,71146.0,-14.69,-15.43,-15.39,0,*69
1484384454.69,26696,6.56,71142.5,-14.71,-15.53,-15.53,0,*6E
1484384455.95,26697,6.56,71126.8,-14.69,-15.43,-15.39,0,*6B
1484384457.19,26698,6.56,71148.3,-14.71,-15.63,-15.63,0,*60
1484384458.43,26699,6.56,71138.5,-14.71,-15.71,-15.63,0,*62
1484384459.69,26700,6.56,71150.8,-14.71,-15.63,-15.57,0,*67
1484384460.95,26701,6.56,71140.0,-14.71,-15.63,-15.57,0,*66
1484384462.21,26702,6.56,71144.0,-14.71,-15.71,-15.57,0,*66
1484384463.45,26703,6.56,71144.8,-14.71,-15.63,-15.63,0,*63
1484384464.71,26704,6.56,71154.3,-14.71,-15.71,-15.57,0,*60
1484384465.95,26705,6.56,71152.0,-14.73,-15.63,-15.57,0,*60
1484384467.21,26706,6.56,71142.0,-14.73,-15.43,-15.35,0,*65
1484384468.44,26707,6.56,71144.3,-14.73,-15.29,-15.29,0,*65
1484384469.7,26708,6.56,71146.0,-14.73,-15.35,-15.21,0,*6F
1484384470.94,26709,6.56,71152.5,-14.71,-15.25,-15.11,0,*6E
1484384472.17,26710,6.56,71154.3,-14.71,-15.11,-15.11,0,*61
1484384473.4,26711,6.56,71152.3,-14.69,-15.11,-15.01,0,*68
1484384474.63,26712,6.56,71148.8,-14.69,-15.11,-15.01,0,*6B
1484384475.87,26713,6.56,71154.0,-14.71,-15.15,-15.15,0,*62
1484384477.12,26714,6.56,71152.0,-14.71,-15.11,-15.01,0,*64
1484384478.36,26715,6.56,71154.8,-14.71,-15.15,-15.11,0,*60
1484384479.6,26716,6.56,71152.5,-14.71,-15.15,-15.11,0,*63
1484384480.81,26717,6.56,71152.5,-14.69,-15.25,-15.15,0,*6C
1484384482.03,26718,6.56,71150.8,-14.69,-15.29,-15.25,0,*6C
1484384483.25,26719,6.56,71154.3,-14.69,-15.29,-15.25,0,*6D
1484384484.52,26720,6.56,71148.8,-14.71,-15.39,-15.29,0,*63
1484384485.79,26721,6.56,71146.8,-14.69,-15.43,-15.39,0,*67
1484384487.03,26722,6.56,71154.8,-14.69,-15.53,-15.39,0,*65
1484384488.27,26723,6.56,71154.3,-14.69,-15.53,-15.57,0,*6C
1484384489.48,26724,6.56,71152.5,-14.69,-15.53,-15.53,0,*6F
1484384490.73,26725,6.56,71150.0,-14.69,-15.39,-15.25,0,*63
1484384491.94,26726,6.56,71148.3,-14.69,-15.25,-15.15,0,*6E
1484384493.15,26727,6.56,71140.8,-14.69,-15.29,-15.15,0,*63
1484384494.37,26728,6.56,71144.3,-14.69,-15.29,-15.15,0,*6C
1484384495.63,26729,6.56,71148.3,-14.69,-15.39,-15.39,0,*62
1484384496.9,26730,6.56,71150.5,-14.69,-15.43,-15.43,0,*6A
1484384498.16,26731,6.56,71152.3,-14.69,-15.57,-15.57,0,*6B
1484384499.42,26732,6.56,71162.0,-14.71,-15.57,-15.53,0,*65
1484384500.69,26733,6.56,71160.5,-14.71,-15.53,-15.39,0,*6C
1484384501.93,26734,6.56,71160.8,-14.71,-15.29,-15.15,0,*68
1484384503.14,26735,6.56,71158.8,-14.69,-15.25,-15.11,0,*68
1484384504.36,26736,6.56,71166.5,-14.69,-15.29,-15.25,0,*60
1484384505.63,26737,6.56,71164.0,-14.69,-15.39,-15.39,0,*6D
1484384506.84,26738,6.56,71160.8,-14.69,-15.71,-15.71,0,*62
1484384508.07,26739,6.56,71164.0,-14.67,-15.71,-15.67,0,*6A
1484384509.28,26740,6.56,71166.3,-14.69,-15.71,-15.63,0,*6E
1484384510.52,26741,6.56,71168.0,-14.71,-15.71,-15.63,0,*66
1484384511.76,26742,6.56,71164.8,-14.69,-15.85,-15.71,0,*64
1484384513.0,26743,6.56,71170.8,-14.71,-15.63,-15.63,0,*67
1484384514.23,26744,6.56,71170.8,-14.71,-15.71,-15.71,0,*60
1484384515.48,26745,6.56,71164.5,-14.71,-15.75,-15.75,0,*61
1484384516.76,26746,6.56,71164.5,-14.71,-15.85,-15.85,0,*62
1484384518.03,26747,6.56,71172.0,-14.71,-15.85,-15.75,0,*6C
1484384519.3,26748,6.56,71174.8,-14.73,-15.89,-15.89,0,*6E
1484384520.53,26749,6.56,71168.5,-14.73,-15.95,-15.89,0,*62
1484384521.75,26750,6.56,71166.8,-14.73,-16.03,-16.03,0,*67
1484384523.04,26751,6.56,71170.0,-14.75,-16.09,-16.17,0,*6F
1484384524.28,26752,6.56,71162.0,-14.73,-16.09,-16.03,0,*6F
1484384525.5,26753,6.56,71162.0,-14.73,-16.03,-15.95,0,*68
1484384526.71,26754,6.56,71154.5,-14.73,-15.95,-15.95,0,*63
1484384527.98,26755,6.56,71154.5,-14.75,-16.03,-15.81,0,*6D
1484384529.24,26756,6.56,71156.0,-14.75,-16.09,-15.95,0,*61
1484384530.51,26757,6.56,71150.5,-14.75,-15.95,-15.81,0,*63
1484384531.8,26758,6.56,71148.5,-14.75,-15.89,-15.81,0,*61
1484384533.08,26759,6.56,71140.0,-14.75,-15.89,-15.89,0,*68
1484384534.32,26760,6.56,71146.3,-14.75,-16.03,-16.03,0,*62
1484384535.58,26761,6.56,71136.3,-14.75,-16.03,-16.09,0,*69
1484384536.86,26762,6.56,71142.8,-14.75,-16.23,-16.23,0,*60
1484384538.14,26763,6.56,71144.8,-14.75,-16.31,-16.31,0,*61
1484384539.42,26764,6.56,71148.8,-14.75,-16.31,-16.31,0,*66
1484384540.7,26765,6.56,71142.5,-14.79,-16.27,-16.27,0,*6B
1484384541.96,26766,6.56,71120.8,-14.79,-16.09,-15.99,0,*62
1484384543.23,26767,6.56,71112.8,-14.79,-15.95,-15.81,0,*6C
1484384544.45,26768,6.56,71126.8,-14.79,-15.67,-15.67,0,*66
1484384545.69,26769,6.56,71122.8,-14.79,-15.53,-15.63,0,*64
1484384546.95,26770,6.56,71124.3,-14.79,-15.49,-15.39,0,*68
1484384548.24,26771,6.56,71134.5,-14.79,-15.39,-15.39,0,*6E
1484384549.51,26772,6.56,71130.5,-14.75,-15.35,-15.29,0,*6C
1484384550.8,26773,6.56,71140.0,-14.79,-15.39,-15.39,0,*6C
1484384552.06,26774,6.56,71140.0,-14.79,-15.35,-15.25,0,*6A
1484384553.33,26775,6.56,71140.5,-14.75,-15.35,-15.29,0,*6B
1484384554.59,26776,6.56,71136.8,-14.75,-15.29,-15.21,0,*6D
1484384555.88,26777,6.56,71136.8,-14.79,-15.35,-15.35,0,*68
1484384557.16,26778,6.56,71138.8,-14.75,-15.43,-15.43,0,*6B
1484384558.45,26779,6.56,71138.8,-14.75,-15.43,-15.43,0,*6A
1484384559.74,26780,6.56,71136.5,-14.75,-15.57,-15.57,0,*6C
1484384561.02,26781,6.56,71132.5,-14.75,-15.35,-15.43,0,*6C
1484384562.28,26782,6.56,71126.8,-14.75,-15.49,-15.35,0,*65
1484384563.54,26783,6.56,71134.5,-14.75,-15.49,-15.43,0,*65
1484384564.81,26784,6.56,71136.8,-14.75,-15.35,-15.29,0,*65
1484384566.04,26785,6.56,71128.3,-14.75,-15.15,-15.07,0,*6A
1484384567.28,26786,6.56,71126.0,-14.75,-15.15,-15.15,0,*6A
1484384568.52,26787,6.56,71130.8,-14.75,-15.29,-15.15,0,*64
1484384569.78,26788,6.56,71134.0,-14.75,-15.15,-15.01,0,*61
1484384571.01,26789,6.56,71134.3,-14.73,-15.21,-15.07,0,*67
1484384572.25,26790,6.56,71130.5,-14.73,-15.29,-15.35,0,*66
1484384573.51,26791,6.56,71138.8,-14.75,-15.35,-15.29,0,*61
1484384574.73,26792,6.56,71122.8,-14.73,-15.63,-15.63,0,*69
1484384575.95,26793,6.56,71138.3,-14.73,-15.63,-15.49,0,*60
1484384577.2,26794,6.56,71138.3,-14.73,-15.43,-15.29,0,*63
1484384578.46,26795,6.56,71132.8,-14.73,-15.35,-15.21,0,*6B
1484384579.67,26796,6.56,71132.8,-14.73,-15.15,-15.07,0,*6E
1484384580.89,26797,6.56,71140.0,-14.73,-15.29,-15.15,0,*63
1484384582.13,26798,6.56,71140.0,-14.73,-15.29,-15.21,0,*6B
1484384583.37,26799,6.56,71136.8,-14.73,-15.49,-15.57,0,*6D
1484384584.61,26800,6.56,71136.3,-14.73,-15.57,-15.49,0,*62
1484384585.82,26801,6.56,71138.5,-14.73,-15.67,-15.63,0,*68
1484384587.04,26802,6.56,71132.0,-14.73,-15.75,-15.75,0,*6F
1484384588.33,26803,6.56,71116.5,-14.75,-15.89,-15.89,0,*68
1484384589.57,26804,6.56,71138.0,-14.75,-15.63,-15.49,0,*67
1484384590.84,26805,6.56,71132.8,-14.73,-15.43,-15.35,0,*69
1484384592.07,26806,6.56,71130.5,-14.75,-15.63,-15.63,0,*6D
1484384593.28,26807,6.56,71134.8,-14.73,-15.63,-15.67,0,*6E
1484384594.5,26808,6.56,71122.8,-14.73,-15.49,-15.49,0,*65
1484384595.77,26809,6.56,71128.8,-14.73,-15.43,-15.43,0,*64
1484384597.02,26810,6.56,71126.5,-14.73,-15.21,-15.21,0,*6C
1484384598.24,26811,6.56,71118.8,-14.73,-15.29,-15.29,0,*6D
1484384599.47,26812,6.56,71138.0,-14.73,-15.29,-15.29,0,*6E
1484384600.74,26813,6.56,71150.0,-14.75,-15.35,-15.29,0,*64
1484384601.96,26814,6.56,71146.5,-14.73,-15.29,-15.29,0,*68
1484384603.25,26815,6.56,71154.3,-14.71,-15.39,-15.39,0,*6B
1484384604.49,26816,6.56,71146.8,-14.71,-15.63,-15.63,0,*68
1484384605.75,26817,6.56,71140.0,-14.73,-15.89,-15.89,0,*6B
1484384607.03,26818,6.56,71130.8,-14.73,-16.09,-16.09,0,*64
1484384608.3,26819,6.56,71128.5,-14.73,-16.09,-16.09,0,*65
1484384609.54,26820,6.56,71124.5,-14.75,-15.95,-15.95,0,*69
1484384610.82,26821,6.56,71122.5,-14.75,-15.81,-15.81,0,*68
1484384612.08,26822,6.56,71120.8,-14.75,-15.67,-15.57,0,*68
1484384613.33,26823,6.56,71134.3,-14.73,-15.57,-15.49,0,*63
1484384614.59,26824,6.56,71128.5,-14.73,-15.43,-15.43,0,*6B
1484384615.81,26825,6.56,71108.5,-14.73,-15.49,-15.49,0,*6A
1484384617.05,26826,6.56,71122.3,-14.73,-15.49,-15.43,0,*63
1484384618.32,26827,6.56,71134.5,-14.73,-15.35,-15.35,0,*68
1484384619.53,26828,6.56,71148.8,-14.73,-15.29,-15.15,0,*68
1484384620.82,26829,6.56,71150.0,-14.75,-15.35,-15.35,0,*60
1484384622.1,26830,6.56,71148.0,-14.75,-15.35,-15.35,0,*68
1484384623.35,26831,6.56,71144.8,-14.73,-15.35,-15.29,0,*62
1484384624.59,26832,6.56,71144.3,-14.73,-15.29,-15.21,0,*64
1484384625.83,26833,6.56,71142.5,-14.73,-15.29,-15.21,0,*65
1484384627.04,26834,6.56,71132.0,-14.73,-15.15,-15.15,0,*6A
1484384628.28,26835,6.56,71132.8,-14.71,-15.25,-15.15,0,*6A
1484384629.53,26836,6.56,71136.5,-14.71,-15.25,-15.25,0,*6A
1484384630.76,26837,6.56,71146.0,-14.71,-15.25,-15.11,0,*6C
1484384632.02,26838,6.56,71136.0,-14.71,-15.11,-14.97,0,*6B
1484384633.31,26839,6.56,71142.8,-14.71,-14.97,-14.97,0,*65
1484384634.56,26840,6.56,71140.8,-14.71,-15.11,-15.01,0,*6A
1484384635.79,26841,6.56,71142.0,-14.69,-15.11,-15.01,0,*62
1484384637.07,26842,6.56,71132.3,-14.71,-15.01,-14.97,0,*67
1484384638.28,26843,6.56,71136.5,-14.69,-15.15,-15.11,0,*65
1484384639.52,26844,6.56,71132.0,-14.71,-15.25,-15.15,0,*6C
1484384640.77,26845,6.56,71132.8,-14.71,-15.29,-15.25,0,*62
1484384641.98,26846,6.56,71134.5,-14.69,-15.25,-15.11,0,*63
1484384643.18,26847,6.56,71142.3,-14.69,-15.11,-15.15,0,*61
1484384644.39,26848,6.56,71136.3,-14.69,-15.11,-15.11,0,*6A
1484384645.62,26849,6.56,71138.3,-14.69,-15.15,-15.01,0,*6E
1484384646.86,26850,6.56,71132.5,-14.71,-15.15,-15.11,0,*6E
1484384648.07,26851,6.56,71128.5,-14.69,-15.11,-15.11,0,*62
1484384649.27,26852,6.56,71124.0,-14.69,-15.11,-15.11,0,*61
1484384650.51,26853,6.56,71132.0,-14.69,-15.15,-15.01,0,*65
1484384651.77,26854,6.56,71130.5,-14.67,-15.07,-14.93,0,*65
1484384653.02,26855,6.56,71128.8,-14.67,-15.11,-14.93,0,*63
1484384654.25,26856,6.56,71134.3,-14.69,-15.11,-14.97,0,*6A
1484384655.54,26857,6.56,71128.5,-14.67,-14.93,-14.97,0,*6E
1484384656.8,26858,6.56,71136.0,-14.67,-15.07,-14.97,0,*6D
1484384658.03,26859,6.56,71136.0,-14.63,-15.11,-15.11,0,*60
1484384659.28,26860,6.56,71132.5,-14.63,-15.21,-15.07,0,*6E
1484384660.53,26861,6.56,71138.5,-14.67,-15.21,-15.11,0,*6C
1484384661.76,26862,6.56,71146.0,-14.67,-15.11,-15.07,0,*6B
1484384663.02,26863,6.56,71148.5,-14.63,-15.11,-14.97,0,*66
1484384664.25,26864,6.56,71142.5,-14.67,-15.11,-15.07,0,*6D
1484384665.48,26865,6.56,71146.3,-14.67,-15.11,-15.07,0,*6C
1484384666.76,26866,6.56,71154.3,-14.63,-14.97,-14.93,0,*68
1484384668.01,26867,6.56,71154.8,-14.61,-14.93,-14.79,0,*6B
1484384669.27,26868,6.56,71156.8,-14.63,-15.07,-14.97,0,*6A
1484384670.56,26869,6.56,71150.0,-14.67,-15.35,-15.35,0,*67
1484384671.84,26870,6.56,71152.0,-14.63,-15.39,-15.35,0,*67
1484384673.12,26871,6.56,71148.3,-14.63,-15.39,-15.35,0,*66
1484384674.41,26872,6.56,71146.5,-14.67,-15.39,-15.35,0,*61
1484384675.67,26873,6.56,71140.3,-14.63,-15.49,-15.35,0,*63
1484384676.93,26874,6.56,71142.3,-14.63,-15.53,-15.39,0,*63
1484384678.19,26875,6.56,71146.0,-14.63,-15.71,-15.57,0,*6A
1484384679.43,26876,6.56,71142.5,-14.67,-15.71,-15.67,0,*6E
1484384680.69,26877,6.56,71150.5,-14.63,-15.57,-15.49,0,*63
1484384681.96,26878,6.56,71140.0,-14.67,-15.35,-15.25,0,*66
1484384683.24,26879,6.56,71132.0,-14.67,-15.35,-15.21,0,*63
1484384684.51,26880,6.56,71140.8,-14.67,-15.39,-15.25,0,*6D
1484384685.78,26881,6.56,71142.0,-14.67,-15.35,-15.25,0,*60
1484384687.03,26882,6.56,71140.8,-14.67,-15.25,-15.25,0,*62
1484384688.31,26883,6.56,71148.0,-14.67,-15.21,-15.21,0,*63
1484384689.57,26884,6.56,71146.5,-14.67,-15.25,-15.21,0,*60
1484384690.83,26885,6.56,71142.0,-14.63,-15.39,-15.25,0,*6C
1484384692.07,26886,6.56,71140.3,-14.61,-15.49,-15.39,0,*67
1484384693.31,26887,6.56,71152.5,-14.63,-15.53,-15.53,0,*63
1484384694.6,26888,6.56,71148.3,-14.63,-15.39,-15.35,0,*60
1484384695.85,26889,6.56,71132.3,-14.67,-15.57,-15.67,0,*6A
1484384697.14,26890,6.56,71136.0,-14.63,-15.57,-15.57,0,*65
1484384698.38,26891,6.56,71142.3,-14.67,-15.49,-15.49,0,*60
1484384699.64,26892,6.56,71140.3,-14.67,-15.49,-15.39,0,*64
1484384700.89,26893,6.56,71138.3,-14.67,-15.67,-15.53,0,*65
1484384702.17,26894,6.56,71136.5,-14.67,-15.57,-15.57,0,*65
1484384703.46,26895,6.56,71142.0,-14.67,-15.35,-15.35,0,*64
1484384704.7,26896,6.56,71126.5,-14.67,-15.53,-15.53,0,*67
1484384705.96,26897,6.56,71128.0,-14.71,-15.63,-15.57,0,*66
1484384707.2,26898,6.56,71122.8,-14.67,-15.63,-15.53,0,*6A
1484384708.44,26899,6.56,71126.8,-14.69,-15.57,-15.53,0,*62
1484384709.69,26900,6.56,71128.3,-14.69,-15.53,-15.39,0,*6B
1484384710.95,26901,6.56,71132.0,-14.69,-15.43,-15.39,0,*6B
1484384712.2,26902,6.56,71122.3,-14.69,-15.39,-15.25,0,*68
1484384713.44,26903,6.56,71156.3,-14.69,-15.39,-15.29,0,*65
1484384714.68,26904,6.56,71168.8,-14.69,-15.39,-15.25,0,*6E
1484384715.93,26905,6.56,71154.3,-14.71,-15.29,-15.29,0,*6B
1484384717.18,26906,6.56,71130.3,-14.69,-15.43,-15.29,0,*6D
1484384718.42,26907,6.56,71136.0,-14.69,-15.43,-15.29,0,*6C
1484384719.63,26908,6.56,71140.3,-14.69,-15.25,-15.15,0,*6C
1484384720.85,26909,6.56,71134.8,-14.69,-15.25,-15.25,0,*6E
1484384722.13,26910,6.56,71104.3,-14.67,-15.21,-14.97,0,*64
1484384723.42,26911,6.56,71144.5,-14.67,-15.35,-15.35,0,*69
1484384724.69,26912,6.56,71184.3,-14.63,-15.39,-15.25,0,*63
1484384725.93,26913,6.56,71148.5,-14.67,-15.53,-15.49,0,*60
1484384727.17,26914,6.56,71160.0,-14.67,-15.49,-15.49,0,*6C
1484384728.44,26915,6.56,71154.3,-14.67,-15.49,-15.39,0,*6A
1484384729.71,26916,6.56,71150.0,-14.67,-15.35,-15.25,0,*6F
1484384730.94,26917,6.56,71140.3,-14.69,-15.57,-15.63,0,*66
1484384732.18,26918,6.56,71146.5,-14.69,-15.85,-15.99,0,*63
1484384733.43,26919,6.56,71160.5,-14.71,-15.99,-16.13,0,*67
1484384734.67,26920,6.56,71150.3,-14.69,-16.13,-16.03,0,*64
1484384735.96,26921,6.56,71148.8,-14.71,-16.17,-16.13,0,*69
1484384737.17,26922,6.56,71152.5,-14.69,-16.03,-15.99,0,*67
1484384738.4,26923,6.56,71152.0,-14.71,-16.03,-16.03,0,*6F
1484384739.67,26924,6.56,71140.3,-14.71,-15.89,-15.75,0,*6B
1484384740.91,26925,6.56,71144.5,-14.71,-15.63,-15.53,0,*6A
1484384742.18,26926,6.56,71154.8,-14.71,-15.53,-15.43,0,*6B
1484384743.42,26927,6.56,71166.0,-14.71,-15.53,-15.53,0,*6B
1484384744.68,26928,6.56,71174.0,-14.73,-15.39,-15.35,0,*6A
1484384745.9,26929,6.56,71170.0,-14.73,-15.75,-15.67,0,*64
1484384747.16,26930,6.56,71150.3,-14.71,-15.85,-15.75,0,*62
1484384748.43,26931,6.56,71138.8,-14.73,-15.81,-15.81,0,*6E
1484384749.66,26932,6.56,71136.5,-14.71,-15.63,-15.63,0,*6F
1484384750.93,26933,6.56,71136.8,-14.71,-15.53,-15.39,0,*62
1484384752.2,26934,6.56,71146.0,-14.71,-15.39,-15.29,0,*68
1484384753.47,26935,6.56,71134.5,-14.73,-15.57,-15.43,0,*6F
1484384754.71,26936,6.56,71116.5,-14.73,-15.63,-15.57,0,*6E
1484384755.97,26937,6.56,71118.8,-14.73,-15.57,-15.57,0,*68
1484384757.24,26938,6.56,71132.8,-14.73,-15.43,-15.43,0,*67
1484384758.49,26939,6.56,71142.5,-14.73,-15.43,-15.29,0,*6A
1484384759.71,26940,6.56,71148.0,-14.73,-15.29,-15.29,0,*68
1484384760.95,26941,6.56,71136.8,-14.73,-15.49,-15.35,0,*62
1484384762.19,26942,6.56,71126.5,-14.71,-15.25,-15.15,0,*6B
1484384763.45,26943,6.56,71130.5,-14.71,-15.15,-15.01,0,*6C
1484384764.68,26944,6.56,71134.0,-14.71,-15.15,-15.11,0,*6A
1484384765.91,26945,6.56,71126.0,-14.69,-15.11,-15.01,0,*67
1484384767.13,26946,6.56,71122.0,-14.69,-15.15,-15.25,0,*66
1484384768.38,26947,6.56,71132.3,-14.71,-15.29,-15.25,0,*61
1484384769.67,26948,6.56,71114.3,-14.71,-15.43,-15.39,0,*6F
1484384770.93,26949,6.56,71106.0,-14.71,-15.53,-15.57,0,*67
1484384772.17,26950,6.56,71128.0,-14.69,-15.53,-15.43,0,*63
1484384773.44,26951,6.56,71126.3,-14.71,-15.53,-15.39,0,*66
1484384774.71,26952,6.56,71130.5,-14.69,-15.43,-15.43,0,*60
1484384775.98,26953,6.56,71138.5,-14.71,-15.39,-15.29,0,*69
1484384777.24,26954,6.56,71146.0,-14.69,-15.43,-15.39,0,*6B
1484384778.54,26955,6.56,71130.3,-14.71,-15.43,-15.39,0,*63
1484384779.82,26956,6.56,71124.5,-14.71,-15.57,-15.57,0,*6D
1484384781.09,26957,6.56,71126.3,-14.71,-15.53,-15.43,0,*6D
1484384782.33,26958,6.56,71132.8,-14.69,-15.53,-15.43,0,*6B
1484384783.6,26959,6.56,71130.0,-14.69,-15.43,-15.39,0,*66
1484384784.86,26960,6.56,71134.0,-14.71,-15.53,-15.43,0,*69
1484384786.08,26961,6.56,71134.8,-14.69,-15.71,-15.71,0,*60
1484384787.31,26962,6.56,71140.5,-14.71,-15.71,-15.63,0,*69
1484384788.55,26963,6.56,71136.0,-14.71,-15.71,-15.71,0,*6B
1484384789.81,26964,6.56,71140.5,-14.71,-15.57,-15.63,0,*6B
1484384791.07,26965,6.56,71138.3,-14.71,-15.53,-15.43,0,*6C
1484384792.37,26966,6.56,71138.3,-14.71,-15.39,-15.43,0,*63
1484384793.65,26967,6.56,71138.0,-14.71,-15.57,-15.57,0,*6F
1484384794.89,26968,6.56,71132.0,-14.71,-15.63,-15.63,0,*60
1484384796.1,26969,6.56,71140.3,-14.69,-15.71,-15.75,0,*6C
1484384797.34,26970,6.56,71148.3,-14.71,-15.63,-15.63,0,*69
1484384798.57,26971,6.56,71158.5,-14.71,-15.63,-15.63,0,*68
1484384799.81,26972,6.56,71122.3,-14.71,-15.75,-15.71,0,*6F
1484384801.08,26973,6.56,71112.8,-14.73,-15.89,-15.81,0,*60
1484384802.32,26974,6.56,71096.8,-14.71,-15.63,-15.53,0,*6E
1484384803.57,26975,6.56,71104.5,-14.71,-15.29,-15.25,0,*60
1484384804.81,26976,6.56,71126.0,-14.71,-15.25,-15.15,0,*6C
1484384806.05,26977,6.56,71124.5,-14.71,-15.29,-15.15,0,*61
1484384807.29,26978,6.56,71134.3,-14.71,-15.29,-15.15,0,*6E
1484384808.53,26979,6.56,71134.5,-14.71,-15.29,-15.15,0,*6F
1484384809.74,26980,6.56,71148.0,-14.69,-15.25,-15.15,0,*6C
1484384810.94,26981,6.56,71142.3,-14.69,-15.11,-15.11,0,*6E
1484384812.2,26982,6.56,71154.3,-14.71,-15.11,-14.97,0,*6B
1484384813.48,26983,6.56,71144.3,-14.71,-15.01,-14.97,0,*6B
1484384814.7,26984,6.56,71148.8,-14.69,-15.25,-15.25,0,*6B
1484384815.92,26985,6.56,71144.5,-14.69,-15.53,-15.53,0,*6A
1484384817.19,26986,6.56,71140.3,-14.67,-15.57,-15.53,0,*63
1484384818.45,26987,6.56,71142.3,-14.71,-15.53,-15.43,0,*60
1484384819.71,26988,6.56,71150.5,-14.69,-15.57,-15.57,0,*67
1484384820.92,26989,6.56,71138.3,-14.69,-15.71,-15.71,0,*66
1484384822.21,26990,6.56,71136.0,-14.71,-15.85,-15.85,0,*67
1484384823.5,26991,6.56,71132.0,-14.71,-15.85,-15.89,0,*6A
1484384824.76,26992,6.56,71128.0,-14.71,-15.99,-15.89,0,*64
1484384825.98,26993,6.56,71138.8,-14.71,-15.99,-15.99,0,*64
1484384827.27,26994,6.56,71132.0,-14.71,-15.89,-15.89,0,*63
1484384828.52,26995,6.56,71130.5,-14.71,-15.75,-15.75,0,*62
1484384829.8,26996,6.56,71126.5,-14.71,-15.57,-15.57,0,*61
1484384831.06,26997,6.56,71126.5,-14.73,-15.57,-15.35,0,*66
1484384832.31,26998,6.56,71130.8,-14.73,-15.43,-15.29,0,*61
1484384833.57,26999,6.56,71122.5,-14.73,-15.57,-15.57,0,*6C
1484384834.81,27000,6.56,71126.5,-14.73,-15.49,-15.43,0,*6E
1484384836.06,27001,6.56,71126.8,-14.73,-15.43,-15.29,0,*69
1484384837.32,27002,6.56,71126.0,-14.73,-15.43,-15.35,0,*67
1484384838.54,27003,6.56,71132.8,-14.73,-15.49,-15.29,0,*61
1484384839.79,27004,6.56,71128.5,-14.73,-15.43,-15.29,0,*6C
1484384841.04,27005,6.56,71138.8,-14.71,-15.25,-15.25,0,*63
1484384842.27,27006,6.56,71130.5,-14.71,-15.11,-15.11,0,*60
1484384843.54,27007,6.56,71128.0,-14.71,-15.39,-15.29,0,*60
1484384844.78,27008,6.56,71130.8,-14.71,-15.29,-15.29,0,*6E
1484384845.99,27009,6.56,71132.8,-14.69,-15.11,-15.11,0,*66
1484384847.24,27010,6.56,71132.0,-14.71,-15.25,-15.25,0,*67
1484384848.48,27011,6.56,71138.8,-14.71,-15.25,-15.25,0,*66
1484384849.7,27012,6.56,71140.0,-14.69,-15.29,-15.25,0,*60
1484384850.91,27013,6.56,71138.0,-14.69,-15.29,-15.15,0,*62
1484384852.21,27014,6.56,71138.5,-14.71,-15.43,-15.39,0,*6E
1484384853.47,27015,6.56,71138.3,-14.69,-15.43,-15.43,0,*6B
1484384854.74,27016,6.56,71136.5,-14.69,-15.43,-15.39,0,*65
1484384855.98,27017,6.56,71150.8,-14.71,-15.25,-15.25,0,*60
1484384857.24,27018,6.56,71146.0,-14.71,-15.11,-15.01,0,*6E
1484384858.47,27019,6.56,71150.0,-14.69,-15.11,-15.01,0,*66
1484384859.67,27020,6.56,71152.5,-14.69,-15.11,-15.11,0,*6D
1484384860.93,27021,6.56,71150.3,-14.69,-14.97,-15.01,0,*62
1484384862.15,27022,6.56,71144.3,-14.69,-15.01,-15.11,0,*6E
1484384863.39,27023,6.56,71148.8,-14.69,-15.15,-14.97,0,*65
1484384864.65,27024,6.56,71142.0,-14.69,-15.01,-14.97,0,*67
1484384865.86,27025,6.56,71132.3,-14.69,-15.15,-15.11,0,*6C
1484384867.07,27026,6.56,71140.8,-14.69,-15.15,-15.11,0,*6F
1484384868.28,27027,6.56,71146.3,-14.69,-15.15,-15.11,0,*6E
1484384869.54,27028,6.56,71152.3,-14.67,-15.21,-15.11,0,*68
1484384870.83,27029,6.56,71148.0,-14.67,-15.39,-15.39,0,*6A
1484384872.07,27030,6.56,71152.0,-14.67,-15.49,-15.49,0,*62
1484384873.35,27031,6.56,71150.0,-14.63,-15.39,-15.35,0,*6B
1484384874.59,27032,6.56,71146.8,-14.67,-15.25,-15.07,0,*60
1484384875.83,27033,6.56,71142.0,-14.67,-15.07,-15.07,0,*61
1484384877.06,27034,6.56,71148.0,-14.63,-15.07,-15.07,0,*62
1484384878.34,27035,6.56,71136.3,-14.67,-14.97,-14.97,0,*67
1484384879.6,27036,6.56,71142.3,-14.67,-15.21,-15.25,0,*60
1484384880.89,27037,6.56,71140.3,-14.63,-15.39,-15.39,0,*61
1484384882.15,27038,6.56,71140.0,-14.63,-15.57,-15.53,0,*6A
1484384883.42,27039,6.56,71140.8,-14.67,-15.57,-15.53,0,*6F
1484384884.66,27040,6.56,71136.3,-14.67,-15.53,-15.49,0,*6E
1484384885.93,27041,6.56,71136.3,-14.67,-15.49,-15.39,0,*63
1484384887.19,27042,6.56,71140.0,-14.69,-15.43,-15.43,0,*69
1484384888.45,27043,6.56,71138.0,-14.69,-15.57,-15.57,0,*68
1484384889.69,27044,6.56,71134.5,-14.67,-15.71,-15.71,0,*61
1484384890.98,27045,6.56,71126.0,-14.67,-15.81,-15.81,0,*60
1484384892.27,27046,6.56,71126.0,-14.67,-15.85,-15.81,0,*67
1484384893.53,27047,6.56,71132.5,-14.67,-15.81,-15.67,0,*6A
1484384894.74,27048,6.56,71124.0,-14.69,-15.63,-15.53,0,*60
1484384896.01,27049,6.56,71132.0,-14.69,-15.39,-15.39,0,*62
1484384897.23,27050,6.56,71134.5,-14.69,-15.29,-15.25,0,*66
1484384898.45,27051,6.56,71146.3,-14.69,-15.29,-15.25,0,*67